Regional Weather Roundup
Issued by NWS

Home | Current Version | Previous Version | Text Only | Print | Product List | Glossary On
Versions: 1 2 3 4 5 6 7 8 9 10 11 12 13 14 15 16 17 18 19 20 21 22 23 24 25 26 27 28 29 30 31 32 33 34 35 36 37 38 39 40 41 42 43 44 45 46 47 48 49 50
000
ASUS45 KBOU 011510
RWRCO

WEATHER ROUNDUP FOR COLORADO
NATIONAL WEATHER SERVICE DENVER/BOULDER CO
900 AM MDT WED JUL 01 2015

NOTE: "FAIR" INDICATES FEW OR NO CLOUDS BELOW 12000 FEET WITH NO
SIGNIFICANT WEATHER AND/OR OBSTRUCTIONS TO VISIBILITY.

COZ001>005-013-030-031-011600-
...NORTHWEST COLORADO...

CITY           SKY/WX    TMP DP  RH WIND       PRES   REMARKS
CRAIG          MOSUNNY   69  49  48 CALM      30.25F
HAYDEN         SUNNY     70  46  43 CALM      30.27S
MEEKER         MOSUNNY   66  48  52 CALM      30.26S
MOUNT WERNER   NOT AVBL
STEAMBOAT SPGS SUNNY     66  50  57 CALM      30.30S
WALDEN         SUNNY     59  48  67 CALM      30.39S
$$

COZ006>008-011-011600-
...WEST CENTRAL VALLEYS...

CITY           SKY/WX    TMP DP  RH WIND       PRES   REMARKS
GRAND JUNCTION PTSUNNY   78  46  32 SE16      30.11R
MONTROSE       PTSUNNY   76  47  35 SE6       30.20F
EAGLE          MOSUNNY   64  48  55 CALM      30.32F
RIFLE          MOSUNNY   76  49  38 VRB3      30.18F
DELTA          PTSUNNY   75  47  36 NE6       30.17S
NUCLA          PTSUNNY   75  45  33 E7        30.23S
$$

COZ017>023-064>068-011600-
...SOUTHWEST COLORADO...

CITY           SKY/WX    TMP DP  RH WIND       PRES   REMARKS
DURANGO        PTSUNNY   72  52  49 N3        30.28R
CORTEZ         SUNNY     81  45  28 VRB3      30.19R
PAGOSA SPRINGS PTSUNNY   66  53  63 NE3       30.37S
TELLURIDE      MOSUNNY   68  48  49 CALM      30.46F
WOLF CREEK PAS NOT AVBL
$$

COZ009-010-012-014-032>034-037-058>063-011600-
...CENTRAL COLORADO...

CITY           SKY/WX    TMP DP  RH WIND       PRES   REMARKS
ASPEN          MOSUNNY   69  46  43 VRB3      30.34F
BUENA VISTA    MOSUNNY   65  47  50 CALM      30.38S
COPPER MTN     SUNNY     59  39  47 W13       30.69S
BERTHOUD PASS  FAIR      50  41  71 N7        30.74R
COTTONWOOD PAS NOT AVBL
GUNNISON       MOSUNNY   63  46  55 SW3       30.40S
KREMMLING      SUNNY     64  45  48 CALM      30.37F
LEADVILLE      MOSUNNY   62  42  47 W3        30.51S
MONARCH PASS   MOSUNNY   55  41  58 SW7       30.79R
SALIDA         MOSUNNY   69  50  50 N7        30.41S
SUNLIGHT       MOSUNNY   64  41  42 CALM      30.61S
WILKERSON PASS PTSUNNY   61  37  41 N7        30.65S
$$

COZ069>075-011600-
...SAN LUIS VALLEY/SANGRE DE CRISTO MOUNTAINS...

CITY           SKY/WX    TMP DP  RH WIND       PRES   REMARKS
ALAMOSA        PTSUNNY   68  49  50 CALM      30.35S
LA VETA PASS   PTSUNNY   55  43  62 MISG      30.52R
SAGUACHE       PTSUNNY   64  50  59 NW10      30.39F
$$

COZ035-036-038>040-011600-
...NORTHERN COLORADO FRONT RANGE...

CITY           SKY/WX    TMP DP  RH WIND       PRES   REMARKS
DENVER INTL AP PTSUNNY   78  53  41 NW8       30.17R
DMNS CITY PARK   N/A     78  54  44 E1        30.17S
AURORA         MOSUNNY   74  56  53 NW6       30.19S
FRONT RANGE AP PTSUNNY   77  55  47 NW5       30.18R
ERIE MUNI ARPT MOSUNNY   77  51  41 CALM      30.15S
BOULDER MUN AP MOSUNNY   79  52  38 CALM      30.16S
CENTENNIAL     PTSUNNY   73  52  47 NW6       30.20R
BROOMFIELD     PTSUNNY   77  54  44 NW5       30.19S
FORT COLLINS   MOSUNNY   75  57  53 N5        30.15S
LONGMONT       MOSUNNY   82  54  37 CALM      30.15S
$$

COZ041-046-047-076>085-087-088-011600-
...PIKES PEAK/PALMER DIVIDE AND SOUTHERN FOOTHILLS...

CITY           SKY/WX    TMP DP  RH WIND       PRES   REMARKS
COLO. SPRINGS  PTSUNNY   80  50  34 N14       30.21R
A. F. ACADEMY  MOSUNNY   78  45  31 N16       30.23R
ELLICOTT       MOSUNNY  N/A N/A N/A NE7       30.19R
FALCON         MOSUNNY   76  45  32 N16G22    30.27R
FORT CARSON    MOSUNNY   76  55  47 N3        30.17R
LIMON          PTSUNNY   74  56  53 N10       30.15R
MONUMENT HILL  MOSUNNY   70  48  46 NW8       30.29S
TRINIDAD       SUNNY     80  50  34 VRB5      30.17S
$$

COZ042>045-048>051-090-091-011600-
...NORTHEAST COLORADO...

CITY           SKY/WX    TMP DP  RH WIND       PRES   REMARKS
GREELEY ARPT   MOSUNNY   79  59  50 N6        30.12S
AKRON          SUNNY     78  58  49 NW8       30.09S
BURLINGTON     MOSUNNY   80  56  43 N15       30.04R
WRAY           SUNNY     84  59  42 NW8       30.01S
STERLING       SUNNY     79  59  50 CALM        N/A
HOLYOKE        SUNNY     86  54  32 N12       30.00S
FORT MORGAN    SUNNY     79  56  44 NE3       30.11R
$$

COZ086-089-092>099-011600-
...SOUTHEAST COLORADO...

CITY           SKY/WX    TMP DP  RH WIND       PRES   REMARKS
PUEBLO         MOSUNNY   79  54  41 E8        30.09R
LA JUNTA       SUNNY     83  55  38 NW3       30.06R
LAMAR          MOSUNNY   81  57  43 W9        30.01R
SPRINGFIELD      N/A     84  52  33 N15G22    30.05R
$$


USA.gov is the U.S. government's official web portal to all federal, state and local government web resources and services.